Bullhead City, AZ

7:23 AM MST on October 22, 2017 (GMT -0700)
Laughlin-Bullhead International

Weather History for KIFP - December, 2013

Change the Weather History Date:

Sunday, December 1, 2013

  Actual Average Record
Temperature  
Mean Temperature 62 °F -  
Max Temperature 68 °F 64 °F 80 °F (2008)
Min Temperature 55 °F 47 °F 32 °F (1991)
Degree Days  
Heating Degree Days 4    
Growing Degree Days 12 (Base 50)    
Moisture  
Dew Point 36 °F    
Average Humidity 39    
Maximum Humidity 51    
Minimum Humidity 26    
Precipitation  
Precipitation 0.00 in - - ()
Sea Level Pressure  
Sea Level Pressure 30.21 in    
Wind  
Wind Speed 17 mph (NNE)    
Max Wind Speed 26 mph    
Max Gust Speed 33 mph    
Visibility 10 miles    
Events      
Averages and records for this station are not official NWS values.
T = Trace of Precipitation, MM = Missing Value Source: NWS Daily Summary

Daily Weather History Graph

Daily Weather History Graph

Search for Another Location

Airport or City:

Trip Planner

Search our weather history database for the weather conditions in past years. The results will help you decide how hot, cold, wet, or windy it might be!

Date:

Astronomy

Dec. 01, 2013 Rise Set
Actual Time 7:28 AM MST 5:26 PM MST
Civil Twilight 7:00 AM MST 5:53 PM MST
Nautical Twilight 6:29 AM MST 6:25 PM MST
Astronomical Twilight 5:58 AM MST 6:55 PM MST
Moon 5:54 AM MST (12/1) 4:37 PM MST (12/1)
Length of Visible Light 10h 53m
Length of Day
9h 57m
Waning Crescent, 2% of the Moon is Illuminated
Dec 1
Waning Crescent
Dec 2
New
Dec 9
First Quarter
Dec 17
Full
Dec 25
Last Quarter

Hourly Weather History & Observations

Time (MST) Temp. Dew Point Humidity Pressure Visibility Wind Dir Wind Speed Gust Speed Precip Events Conditions
12:15 AM 60.8 °F 33.8 °F 36% 30.19 in 10.0 mi NNE 16.1 mph - N/A   Clear
12:35 AM 62.6 °F 33.8 °F 34% 30.19 in 10.0 mi NNE 13.8 mph - N/A   Clear
12:55 AM 60.8 °F 33.8 °F 36% 30.18 in 10.0 mi NNE 12.7 mph - N/A   Clear
1:15 AM 60.8 °F 33.8 °F 36% 30.18 in 10.0 mi NE 8.1 mph - N/A   Clear
1:35 AM 60.8 °F 33.8 °F 36% 30.18 in 10.0 mi NNE 16.1 mph - N/A   Clear
1:55 AM 60.8 °F 35.6 °F 39% 30.18 in 10.0 mi NE 16.1 mph 21.9 mph N/A   Clear
2:15 AM 60.8 °F 35.6 °F 39% 30.18 in 10.0 mi NE 17.3 mph 21.9 mph N/A   Clear
2:35 AM 60.8 °F 35.6 °F 39% 30.19 in 10.0 mi NNE 18.4 mph - N/A   Clear
2:55 AM 59.0 °F 35.6 °F 42% 30.19 in 10.0 mi NNE 18.4 mph 25.3 mph N/A   Clear
3:15 AM 59.0 °F 35.6 °F 42% 30.19 in 10.0 mi NNE 23.0 mph - N/A   Clear
3:35 AM 59.0 °F 35.6 °F 42% 30.20 in 10.0 mi NNE 23.0 mph 27.6 mph N/A   Clear
3:55 AM 59.0 °F 35.6 °F 42% 30.19 in 10.0 mi NNE 21.9 mph - N/A   Clear
4:15 AM 59.0 °F 37.4 °F 45% 30.19 in 10.0 mi NNE 21.9 mph 26.5 mph N/A   Clear
4:35 AM 59.0 °F 37.4 °F 45% 30.20 in 10.0 mi NNE 18.4 mph - N/A   Clear
4:55 AM 59.0 °F 35.6 °F 42% 30.20 in 10.0 mi NNE 24.2 mph - N/A   Clear
5:15 AM 59.0 °F 37.4 °F 45% 30.20 in 10.0 mi NNE 20.7 mph 27.6 mph N/A   Clear
5:35 AM 59.0 °F 37.4 °F 45% 30.21 in 10.0 mi NNE 20.7 mph - N/A   Clear
5:55 AM 59.0 °F 37.4 °F 45% 30.22 in 10.0 mi NE 25.3 mph 28.8 mph N/A   Clear
6:15 AM 57.2 °F 37.4 °F 48% 30.22 in 10.0 mi NNE 23.0 mph 29.9 mph N/A   Clear
6:35 AM 57.2 °F 37.4 °F 48% 30.23 in 10.0 mi NNE 17.3 mph - N/A   Clear
6:55 AM 57.2 °F 37.4 °F 48% 30.23 in 10.0 mi NNE 20.7 mph 24.2 mph N/A   Clear
7:15 AM 57.2 °F 37.4 °F 48% 30.24 in 10.0 mi NE 21.9 mph 28.8 mph N/A   Clear
7:35 AM 55.4 °F 37.4 °F 51% 30.24 in 10.0 mi NE 17.3 mph - N/A   Clear
7:55 AM 55.4 °F 37.4 °F 51% 30.25 in 10.0 mi NE 19.6 mph 24.2 mph N/A   Clear
8:15 AM 55.4 °F 37.4 °F 51% 30.27 in 10.0 mi NE 18.4 mph - N/A   Clear
8:35 AM 55.4 °F 37.4 °F 51% 30.27 in 10.0 mi NNE 19.6 mph 28.8 mph N/A   Clear
8:55 AM 57.2 °F 37.4 °F 48% 30.27 in 10.0 mi NNE 19.6 mph 27.6 mph N/A   Clear
9:15 AM 57.2 °F 37.4 °F 48% 30.28 in 10.0 mi NNE 16.1 mph 24.2 mph N/A   Clear
9:35 AM 57.2 °F 37.4 °F 48% 30.28 in 10.0 mi NNE 20.7 mph 26.5 mph N/A   Clear
9:55 AM 57.2 °F 37.4 °F 48% 30.28 in 10.0 mi NNE 21.9 mph 27.6 mph N/A   Clear
10:15 AM 59.0 °F 37.4 °F 45% 30.28 in 10.0 mi NNE 23.0 mph 28.8 mph N/A   Clear
10:35 AM 59.0 °F 37.4 °F 45% 30.28 in 10.0 mi NNE 23.0 mph - N/A   Clear
10:55 AM 59.0 °F 37.4 °F 45% 30.28 in 10.0 mi NNE 23.0 mph 31.1 mph N/A   Clear
11:15 AM 60.8 °F 35.6 °F 39% 30.28 in 10.0 mi NNE 20.7 mph 31.1 mph N/A   Clear
11:35 AM 62.6 °F 35.6 °F 37% 30.27 in 10.0 mi North 23.0 mph 28.8 mph N/A   Clear
11:55 AM 62.6 °F 35.6 °F 37% 30.26 in 10.0 mi NNE 24.2 mph 27.6 mph N/A   Clear
12:15 PM 62.6 °F 35.6 °F 37% 30.25 in 10.0 mi NNE 26.5 mph 33.4 mph N/A   Clear
12:35 PM 64.4 °F 35.6 °F 34% 30.24 in 10.0 mi North 24.2 mph 33.4 mph N/A   Clear
12:55 PM 64.4 °F 35.6 °F 34% 30.23 in 10.0 mi NNE 24.2 mph 28.8 mph N/A   Clear
1:15 PM 66.2 °F 35.6 °F 32% 30.23 in 10.0 mi NNE 20.7 mph 28.8 mph N/A   Clear
1:35 PM 66.2 °F 33.8 °F 30% 30.21 in 10.0 mi North 20.7 mph 31.1 mph N/A   Clear
1:55 PM 66.2 °F 33.8 °F 30% 30.20 in 10.0 mi NNE 20.7 mph 26.5 mph N/A   Clear
2:15 PM 66.2 °F 33.8 °F 30% 30.20 in 10.0 mi North 20.7 mph 27.6 mph N/A   Clear
2:35 PM 66.2 °F 33.8 °F 30% 30.20 in 10.0 mi North 21.9 mph 28.8 mph N/A   Clear
2:55 PM 68.0 °F 32.0 °F 26% 30.19 in 10.0 mi North 21.9 mph 27.6 mph N/A   Clear
3:15 PM 68.0 °F 32.0 °F 26% 30.18 in 10.0 mi North 19.6 mph 25.3 mph N/A   Clear
3:35 PM 68.0 °F 32.0 °F 26% 30.17 in 10.0 mi North 17.3 mph 23.0 mph N/A   Clear
3:55 PM 68.0 °F 33.8 °F 28% 30.17 in 10.0 mi North 19.6 mph 23.0 mph N/A   Clear
4:15 PM 68.0 °F 33.8 °F 28% 30.17 in 10.0 mi North 19.6 mph - N/A   Clear
4:35 PM 68.0 °F 33.8 °F 28% 30.17 in 10.0 mi North 15.0 mph 20.7 mph N/A   Clear
4:55 PM 68.0 °F 33.8 °F 28% 30.17 in 10.0 mi NNE 17.3 mph 24.2 mph N/A   Clear
5:15 PM 66.2 °F 33.8 °F 30% 30.16 in 10.0 mi NNE 18.4 mph - N/A   Clear
5:35 PM 66.2 °F 35.6 °F 32% 30.17 in 10.0 mi NNE 18.4 mph 25.3 mph N/A   Clear
5:55 PM 64.4 °F 35.6 °F 34% 30.18 in 10.0 mi NNE 15.0 mph - N/A   Clear
6:15 PM 64.4 °F 35.6 °F 34% 30.18 in 10.0 mi NNE 12.7 mph - N/A   Clear
6:35 PM 64.4 °F 35.6 °F 34% 30.18 in 10.0 mi NNE 12.7 mph - N/A   Clear
6:55 PM 64.4 °F 35.6 °F 34% 30.18 in 10.0 mi NNE 11.5 mph - N/A   Clear
7:15 PM 64.4 °F 35.6 °F 34% 30.19 in 10.0 mi NNE 15.0 mph - N/A   Clear
7:35 PM 62.6 °F 35.6 °F 37% 30.19 in 10.0 mi NNE 12.7 mph - N/A   Clear
7:55 PM 62.6 °F 35.6 °F 37% 30.19 in 10.0 mi NNE 11.5 mph - N/A   Clear
8:15 PM 62.6 °F 35.6 °F 37% 30.19 in 10.0 mi NNE 12.7 mph - N/A   Clear
8:35 PM 62.6 °F 35.6 °F 37% 30.18 in 10.0 mi NNE 17.3 mph - N/A   Clear
8:55 PM 62.6 °F 33.8 °F 34% 30.19 in 10.0 mi NNE 15.0 mph - N/A   Clear
9:15 PM 62.6 °F 33.8 °F 34% 30.19 in 10.0 mi NNE 11.5 mph - N/A   Clear
9:35 PM 60.8 °F 33.8 °F 36% 30.20 in 10.0 mi NNE 8.1 mph - N/A   Clear
9:55 PM 59.0 °F 33.8 °F 39% 30.19 in 10.0 mi North 4.6 mph - N/A   Clear
10:15 PM 59.0 °F 35.6 °F 42% 30.19 in 10.0 mi NNW 3.5 mph - N/A   Clear
10:35 PM 59.0 °F 35.6 °F 42% 30.20 in 10.0 mi Calm Calm - N/A   Clear
10:55 PM 57.2 °F 35.6 °F 44% 30.20 in 10.0 mi WNW 3.5 mph - N/A   Clear
11:15 PM 59.0 °F 35.6 °F 42% 30.20 in 10.0 mi Calm Calm - N/A   Clear
11:35 PM 55.4 °F 35.6 °F 47% 30.19 in 10.0 mi Calm Calm - N/A   Clear
11:55 PM 57.2 °F 35.6 °F 44% 30.19 in 10.0 mi Calm Calm - N/A   Clear